STARLINK-5067 (55653 NORAD) Tracking and Keplerian Element Data

This shows tracking and keplerian element data for the satellite.

Feedback or suggestion? Click here.




ElementValue
Catalog55653
NameSTARLINK-5067
Epoch Orbit130
Epoch Day62.91667824
Epoch Year2023
RAAN110.1924
Inclination70.0001
Eccentricity0.0003495
Argument of Perigee271.0949
Mean Anonmoly330.8606
Mean Motion15.75088792
Decay Rate-0.00973077
L11 55653U 23021AB 23062.91667824 -.00973077 00000+0 -72818-2 0 9990
L22 55653 70.0001 110.1924 0003495 271.0949 330.8606 15.75088792 1307



Live tracking and technical data element details for STARLINK-5067 (NORAD 55653). STARLINK-5067 can be tracked NOW for your location showing map with azimuth and elevation plus other details from your city location.







IsCatalogInMostPopularTable: catalog: 55653, numindb: 1
Update: records affected: 1



GetName: 55653 STARLINK-5067

Hit Count: updated at: Wed, 22 Mar 2023 15:28:49 GMT